Miscellaneous Local Product
Issued by NWS Hastings, NE

Home | Current Version | Previous Version | Text Only | Print | Product List | Glossary Off
Versions: 1 2 3 4 5 6 7 8 9 10 11 12 13 14 15 16 17 18 19 20 21 22 23 24 25 26 27 28 29 30 31 32 33 34 35 36 37 38 39 40 41 42 43 44 45 46 47 48 49 50

000
AXUS43 KGID 161502
MISGRI

GID CWA HOURLY WEATHER ROUNDUP
NATIONAL WEATHER SERVICE HASTINGS NE
1000 AM CDT WED AUG 16 2017

NOTE: "FAIR" INDICATES FEW OR NO CLOUDS BELOW 12,000 FEET WITH NO
SIGNIFICANT WEATHER AND/OR OBSTRUCTIONS TO VISIBILITY.

...SOUTH CENTRAL NEBRASKA...

CITY           SKY/WX    TMP DP  RH WIND       PRES   REMARKS
GRAND ISLAND   CLOUDY    66  65  96 W10       29.85R
HASTINGS       CLOUDY    68  62  81 W17       29.87R
KEARNEY        PTSUNNY   66  61  84 NW15      29.89S
ORD            CLOUDY    64  62  93 NW8       29.85R
YORK           CLOUDY    66  66 100 NW9       29.81F
AURORA         CLOUDY    65  65 100 NW12      29.83R
LEXINGTON      CLOUDY    68  60  76 NW14G20   29.91F
HOLDREGE       CLOUDY    67  60  79 NW9       29.90S
HEBRON         CLOUDY    67  66  97 W12G18    29.84R

...NEBRASKA PANHANDLE...

CITY           SKY/WX    TMP DP  RH WIND       PRES   REMARKS
CHADRON        PTSUNNY   64  58  80 N8        30.01R
ALLIANCE       PTSUNNY   63  56  78 N16       30.00R
SCOTTSBLUFF    CLOUDY    63  56  78 W8        30.04R
SIDNEY         MOSUNNY   64  55  72 NW18      30.04R

...WESTERN AND NORTH CENTRAL NEBRASKA...

CITY           SKY/WX    TMP DP  RH WIND       PRES   REMARKS
VALENTINE      CLOUDY    67  61  81 NW14      29.90R
AINSWORTH      CLOUDY    64  64  97 NW7       29.89F
ONEILL         RAIN      64  64 100 N3        29.86S
BROKEN BOW     PTSUNNY   66  61  84 NW10      29.89R
IMPERIAL       CLOUDY    64  59  83 NW10      29.98S
NORTH PLATTE   MOSUNNY   68  62  81 NW8       29.94R
MCCOOK         CLOUDY    65  62  90 NW9       29.94R

...EASTERN NEBRASKA...

CITY           SKY/WX    TMP DP  RH WIND       PRES   REMARKS
NORFOLK        LGT RAIN  66  64  93 E6        29.78R
SO SIOUX CITY  LGT RAIN  69  69 100 E9        29.76F
TEKAMAH        LGT RAIN  70  68  93 E13       29.73F FOG
COLUMBUS       LGT RAIN  68  66  93 CALM      29.78R
ALBION         CLOUDY    67  66  97 NW7       29.81R FOG
OMAHA EPPLEY   LGT RAIN  73  68  84 SW5       29.76F
OFFUTT AFB     LGT RAIN  73  68  84 CALM      29.75F
MILLARD        CLOUDY    72  69  93 CALM      29.75F
LINCOLN        CLOUDY    70  67  90 E6        29.71F
NEBRASKA CITY  LGT RAIN  69  69 100 E10       29.74F
BEATRICE       PTSUNNY   68  66  91 W5        29.77R
FALLS CITY     LGT RAIN  72  66  81 NW7       29.81S

...NORTHERN KANSAS...

CITY           SKY/WX    TMP DP  RH WIND       PRES   REMARKS
GOODLAND       CLOUDY    64  59  83 W7        30.00F
HILL CITY      LGT RAIN  66  63  90 N10       29.88F
NORTON         PTSUNNY   66  57  72 NW9       29.91F
PHILLIPSBURG   MOSUNNY   70  63  78 W18       29.92R
SMITH CENTER   PTSUNNY   66  63  88 W13       29.89R
HAYS           CLOUDY    66  63  90 NW13      29.91R
RUSSELL        SUNNY     69  63  81 NW3       29.86R
CONCORDIA      CLOUDY    69  67  93 W8        29.84R
SALINA         CLOUDY    72  66  81 SE7       29.83R
TOPEKA         LGT RAIN  71  67  87 W6        29.86F



USA.gov is the U.S. government's official web portal to all federal, state and local government web resources and services.